Weather Service Report


280 
FPUS83 KFGF 201410
OPUFGF
PRAIRIE TO PINES WEATHER ROUNDUP
NATIONAL WEATHER SERVICE EASTERN NORTH DAKOTA/GRAND FORKS ND
800 AM CST SAT DEC 20 2014

 **SATELLITE DATA USED TO AUGMENT SKY COVER AT AUTOMATED STATIONS**
 *****  WEATHER ACROSS EASTERN NORTH DAKOTA  *****
  
CITY           SKY/WX    TMP DP  RH WIND       PRES   REMARKS
GRAND FORKS    CLOUDY    27  26  96 S10       30.00S WCI  17          
GRAND FORKS AF CLOUDY    27  27 100 SW8       30.00R WCI  18          
GRAND CITY NWS   N/A     27 N/A N/A SW7         N/A  WCI  19          
BUXTON         NOT AVBL                                               
DEVILS LAKE    CLOUDY    21  14  73 CALM      29.94F                  
FARGO          CLOUDY    30  26  85 S10       30.03R WCI  21          
WAHPETON ARPT  CLOUDY    30  28  93 S9        30.04S WCI  22          
$$

 *****  WEATHER ACROSS CENTRAL AND WESTERN NORTH DAKOTA  *****
  
CITY           SKY/WX    TMP DP  RH WIND       PRES   REMARKS
JAMESTOWN      FOG       19  15  84 S9        29.95F VSB 1/2 WCI   8  
BISMARCK       CLOUDY    16  13  88 E6        29.92F WCI   7          
MINOT          FOG       23  21  92 S7        29.88F VSB 1/4 WCI  15  
MINOT AFB      FRZ DRZL  23  23 100 SE6       29.88F VSB 1/2 WCI  16  
GARRISON         N/A     19  16  88 E8        29.87F WCI   9          
WILLISTON      CLOUDY    21  19  92 CALM      29.84S                  
DICKINSON      CLOUDY    30  25  81 S6        29.82S WCI  24          
HETTINGER      CLOUDY    31  24  75 W5        29.87S                  
$$

 *****  OTHER OBSERVATIONS NORTHEAST NORTH DAKOTA  *****
  
CITY           SKY/WX    TMP DP  RH WIND       PRES   REMARKS
WALHALLA         N/A     25  25 100 W3        29.99R                  
LANGDON        CLOUDY    25  23  93 SW7       29.94S FOG     WCI  17  
CAVALIER       CLOUDY    27  27 100 CALM      29.99R FOG              
GRAFTON        NOT AVBL                                               
CANDO          FOG       23  21  93 SE3       29.95F VSB 3/4          
FORT TOTTEN    NOT AVBL                                               
ROLLA          FOG       19  19 100 S3        29.93S VSB 3/4          
RUGBY          FOG       23  23 100 E6        29.93S VSB 1/2 WCI  16  
 ***** THE ABOVE OBSERVATIONS ARE NON NWS ARE NOT QUALITY
        CONTROLLED AND MAY MIS-REPORT RAIN FOR SNOW...
$$

 *****  OTHER OBSERVATIONS SOUTHEAST NORTH DAKOTA *****
  
CITY           SKY/WX    TMP DP  RH WIND       PRES   REMARKS
COOPERSTOWN    NOT AVBL                                               
VALLEY CITY    FOG       23  23 100 S13       29.98S VSB 1/4 WCI  11  
OAKES          FOG       27  27 100 S8        30.00S VSB 1/2 WCI  18  
GWINNER        CLOUDY    30  30 100 MISG      30.02R                  
SHEYENNE NWR     N/A     28  26  94 S7        29.95  WCI  21          
BUFFALO        NOT AVBL                                               
WYNDMERE         N/A     28  28 100 S7          N/A  WCI  21          
 ***** THE ABOVE OBSERVATIONS ARE NON NWS ARE NOT QUALITY
       CONTROLLED AND MAY MIS-REPORT RAIN FOR SNOW...
$$

  *****  WEATHER ACROSS NORTHERN MINNESOTA  *****     
  
CITY           SKY/WX    TMP DP  RH WIND       PRES   REMARKS
FLAG ISLAND    CLOUDY    27  25  93 S12       30.00S FOG     WCI  16  
WARROAD        CLOUDY    28  25  86 SE7       30.00F FOG     WCI  21  
ROSEAU         CLOUDY    28  25  86 S6        29.99F HAZE    WCI  22  
HALLOCK        CLOUDY    28  27  93 CALM      29.99R FOG              
THF RVR FALLS  CLOUDY    28  28 100 S8        30.00S WCI  20          
HALSTAD          N/A     29  27  90 S10         N/A  WCI  20          
FOSSTON        CLOUDY    27  27 100 S14       30.01S FOG     WCI  15  
BAUDETTE       CLOUDY    28  26  92 SE5       30.02S FOG     WCI  23  
WASKISH        CLOUDY    28  28 100 CALM      30.03S FOG              
CROOKSTON      CLOUDY    28  28 100 SW8       30.02S FOG     WCI  20  
$$
  *****  WEATHER ACROSS CENTRAL AND WEST MINNESOTA  *****     
  
CITY           SKY/WX    TMP DP  RH WIND       PRES   REMARKS
BEMIDJI          N/A     29  28  96 S6        30.01F FOG     WCI  23  
PARK RAPIDS    CLOUDY    30  28  92 S10       30.02S FOG     WCI  21  
WADENA         CLOUDY    28  27  93 S12       30.04S FOG     WCI  18  
DETROIT LAKES  CLOUDY    30  30 100 S8        30.02S FOG     WCI  23  
MOORHEAD       CLOUDY    30  30 100 S6        30.04S WCI  24          
FERGUS FALLS   CLOUDY    28  28 100 S10       30.07R FOG     WCI  19  
ELBOW LAKE     CLOUDY    28  28  98 S12       30.04S FOG     WCI  18  
MORRIS MN      PTCLDY    30  28  93 S13       30.05R FOG     WCI  20  
STAPLES        CLOUDY    28  27  93 S9        30.05F FOG     WCI  20  
WHEATON        CLOUDY    28  27  93 S8        30.07S WCI  20          
$$
  *****  WEATHER ELSEWHERE ACROSS MINNESOTA  *****     
  
CITY           SKY/WX    TMP DP  RH WIND       PRES   REMARKS
DULUTH         CLOUDY    26  23  88 S6        30.11S FOG     WCI  19  
INTRNTL FALLS  CLOUDY    27  24  89 S5        30.05S WCI  22          
ELY            LGT SNOW  27  25  93 S3        30.09F                  
CLOQUET        CLOUDY    27  25  93 CALM      30.11F FOG              
BRAINERD       CLOUDY    30  29  96 S9        30.07F FOG     WCI  22  
HIBBING        LGT SNOW  27  23  85 SE6       30.08S FOG     WCI  20  
ALEXANDRIA     CLOUDY    29  27  92 S10       30.05S FOG     WCI  20  
SAINT CLOUD    CLOUDY    32  29  88 S9        30.10F FOG     WCI  24  
MINNEAPOLIS    CLOUDY    30  26  85 SE6       30.16S FOG     WCI  24  
$$

  *****  WEATHER ACROSS SOUTH DAKOTA  *****
  
CITY           SKY/WX    TMP DP  RH WIND       PRES   REMARKS
SIOUX FALLS    CLOUDY    31  29  92 S12       30.06S FOG     WCI  22  
BROOKINGS      NOT AVBL                                               
WATERTOWN      CLOUDY    28  26  92 S13       30.01S FOG     WCI  17  
HURON          FOG       25  24  96 S7        30.03S VSB 3/4 WCI  17  
SISSETON         N/A     29  28  96 S9        30.02S WCI  20          
ABERDEEN       FOG       26  24  92 S12       30.01S VSB 1/2 WCI  16  
MITCHELL       FOG       27  27 100 S8        30.05S VSB 1/2 WCI  19  
PIERRE         FOG       19  15  84 E7        29.95F VSB 1/4 WCI  10  
MOBRIDGE       PTCLDY    20  17  88 SE9       29.90S WCI   9          
RAPID CITY     CLOUDY    36  23  59 NW8       29.90R                  
$$

  *****  SOME WEATHER IN NEARBY STATES *****
  
CITY           SKY/WX    TMP DP  RH WIND       PRES   REMARKS
GLASGOW MT     PTCLDY    24  21  88 SE3       29.81S                  
GREAT FALLS MT PTCLDY    31  21  66 SW15      29.86S WCI  20          
CHEYENNE WY    CLOUDY    36  17  46 SW14      29.96R                  
SCOTTSBLUFF NE MOCLDY    19  15  84 CALM      29.97R                  
OMAHA NE       CLOUDY    32  32 100 S9        30.13R FOG     WCI  24  
DES MOINES IA  CLOUDY    32  28  85 S5        30.18R                  
DAVENPORT IA   CLOUDY    29  23  78 SE7       30.24S HAZE    WCI  22  
CHICAGO IL     CLOUDY    30  24  78 CALM      30.27S                  
EAU CLAIRE WI  CLOUDY    28  21  75 S6        30.19R WCI  22          
LA CROSSE WI   CLOUDY    30  24  78 S6        30.22S WCI  24          
$$

  *****  SOME NATIONAL WEATHER *****
  
CITY           SKY/WX    TMP DP  RH WIND       PRES   REMARKS
LA GUARDIA NY  CLOUDY    31  21  66 N12       30.29R WCI  22          
RALEIGH NC     LGT SNOW  34  27  75 NE6       30.29S FOG              
ATLANTA GA     DRIZZLE   46  43  87 N5        30.19R FOG              
NEW ORLEANS LA CLOUDY    51  47  86 NE13      30.13R FOG              
OKLAHOMA CITY  CLOUDY    41  35  79 SE6       30.20F                  
ALBUQUERQUE NM MOCLDY    26  21  81 S5        30.16S WCI  20          
SALT LAKE CITY MOCLDY    39  33  79 SE8       30.10S                  
LOS ANGELES CA PTCLDY    51  47  86 CALM      30.16R                  
BOISE ID       LGT RAIN  42  35  76 SE6       30.01R                  
SEATTLE WA     LGT RAIN  45  40  82 E9        29.67F                  
$$

*** WEATHER ACROSS MANITOBA...SASKATCHEWAN AND ONTARIO ***
                ***ONTARIO***
  
CITY           SKY/WX    TMP DP  RH WIND       PRES   REMARKS
GERALDTON      CLOUDY    12   9  85 SE3       30.19R                  
THUNDER BAY    NOT AVBL                                               
SIOUX LOOKOUT  FLURRIES  23  21  93 SE3       30.06F                  
TORONTO        MOCLDY    23  21  93 N8        30.30S WCI  14          
BIG TROUT LK   CLOUDY    19  18  93 S3        30.11F                  
PICKLE LAKE    FLURRIES  19  16  86 S7        30.09S WCI  10          
DRYDEN         CLOUDY    23  23 100 SE7       30.04F WCI  15          
KENORA         FOG       23  23 100 SE6       30.01F VSB 1   WCI  16  
$$      
                *** MANITOBA***
  
CITY           SKY/WX    TMP DP  RH WIND       PRES   REMARKS
BRANDON        CLOUDY    23  23 100 SE3       29.94F                  
DAUPHIN        CLOUDY    21  19  93 SE7       29.95F WCI  13          
ISLAND LAKE    FLURRIES  19  18  93 SE5       30.04F WCI  13          
PILOT MOUND      N/A     23  21  93 S1          N/A                   
THE PAS        CLOUDY    19  18  93 SE10      29.92F FOG     WCI   8  
THOMPSON       NOT AVBL                                               
WINNIPEG       FRZ DRZL  27  25  93 S7        30.01R FOG     WCI  19  
LYNN LAKE      LGT SNOW  12  10  92 S9        29.87F WCI   0          
GILLAM         LGT SNOW  14  12  92 SW3       30.04F                  
$$
                ***SASKATCHEWAN***
  
CITY           SKY/WX    TMP DP  RH WIND       PRES   REMARKS
ESTEVAN        FOG       18  16  93 E9        29.83F VSB 1/4 WCI   6  
KINDERSLEY     MOCLDY    21  19  93 W6        29.70R WCI  14          
LLOYDMINSTER   CLOUDY    16  14  93 CALM      29.69R                  
PRINCE ALBERT  NOT AVBL                                               
REGINA         NOT AVBL                                               
YORKTON        CLOUDY    21  19  93 S10       29.85F WCI  10          

Return to Home page


Western Regional Climate Center, wrcc@dri.edu